{"data":{"norad_id":56073,"intl_designator":"2023-043AD","name":"ONEWEB-0632","alt_names":[],"object_type":"PAYLOAD","status":"ACTIVE","operator":null,"country":"UK","launch_date":"2023-03-26","launch_site_code":"SRILR","launch_vehicle":null,"mission":null,"orbit_class":"UNKNOWN","rcs_meters":null,"size_class":null,"mass_kg":null,"dimensions":null,"purposes":["comms"],"wikipedia_slug":null,"has_3d_model":false,"image_url":null,"decayed_at":null,"tle_current":{"epoch":"2026-05-25T01:09:12.727008Z","epoch_age_seconds":77705,"freshness":"FRESH","line1":"1 56073U 23043AD  26145.04806397 -.00000312  00000+0 -86231-3 0  9998","line2":"2 56073  87.8990 263.8241 0002032  96.4838 263.6523 13.15548315153388","mean_motion":13.15548315,"eccentricity":0.0002032,"inclination_deg":87.899,"raan_deg":263.8241,"arg_perigee_deg":96.4838,"mean_anomaly_deg":263.6523,"bstar":-0.00086231,"rev_number":15338,"period_min":109.46006190582,"perigee_km":1200.2314326995,"apogee_km":1203.3119075831,"semimajor_km":7579.9086701413,"source":"CELESTRAK","updated_at":"2026-05-25T13:38:22.706010Z"}}}